Regional Weather Roundup
Issued by NWS

Home | Current Version | Previous Version | Graphics & Text | Print | Product List | Glossary On
Versions: 1 2 3 4 5 6 7 8 9 10 11 12 13 14 15 16 17 18 19 20 21 22 23 24 25 26 27 28 29 30 31 32 33 34 35 36 37 38 39 40 41 42 43 44 45 46 47 48 49 50
000
ASUS43 KIND 160109
RWRIN

WEATHER ROUNDUP FOR INDIANA
NATIONAL WEATHER SERVICE INDIANAPOLIS IN
800 PM EST MON JAN 15 2018

NOTE: "FAIR" INDICATES FEW OR NO CLOUDS BELOW 12,000 FEET WITH NO
SIGNIFICANT WEATHER AND/OR OBSTRUCTIONS TO VISIBILITY.

* - STATION DOES NOT REPORT WEATHER SUCH AS PRECIPITATION OR FOG.

+ - STATION NOT QUALITY CONTROLLED BY THE NATIONAL WEATHER SERVICE.
    USE DATA WITH CAUTION...ESPECIALLY DEWPOINT AND RELATIVE
    HUMIDITY OBSERVATIONS.

INZ001>003-010>013-019-020-160200-
NORTHWEST INDIANA

CITY           SKY/WX    TMP DP  RH WIND       PRES   REMARKS
GARY /AIRPORT/ CLOUDY    14   5  67 W16       30.31R WCI  -2
KNOX *+        MOCLDY    12   5  73 W15       30.30R WCI  -4
LA PORTE +     FLURRIES  13   8  79 W10G17    30.29R WCI   0
MICHIGAN CITY+ LGT SNOW  14   9  79 SW12G17   30.29R WCI   0
MONTICELLO +   LGT SNOW  10   5  79 W13G18    30.35R WCI  -5
RENSSELAER +   CLOUDY    10   3  72 SW16G22   30.35R WCI  -7
VALPARAISO     CLOUDY    13   6  74 W14       30.30R WCI  -2

$$

LMZ046-743>745-160200-
SOUTHERN LAKE MICHIGAN

STATION/POSITION TIME  TEMP    WIND        PRES    WAVE
                       AIR SEA DIR/SP/G            HT
                 (UTC) (F)     (DEG/KT/KT) (MB)    (FT)
BURNS HARBOR     0100   14     240/ 13/ 22 1026.4
MICHIGAN CITY    0040          230/ 22/ 24   N/A

$$

INZ004-005-014>016-021>024-160200-
NORTH CENTRAL INDIANA

CITY           SKY/WX    TMP DP  RH WIND       PRES   REMARKS
ELKHART        FLURRIES  16  10  79 SW10      30.26R WCI   3
GOSHEN         CLOUDY    14   9  80 W16G24    30.27R WCI  -2
LOGANSPORT +   FAIR       9   3  78 W15       30.35R WCI  -8
PERU/GRISSOM   CLEAR      8   5  87 W15       30.32R WCI  -9
ROCHESTER +    FLURRIES  14  10  85 SW16G23   30.31R WCI  -2
SOUTH BEND     CLOUDY    13   9  84 SW12      30.27R WCI  -1
WARSAW +       FLURRIES  14  10  85 W12       30.28R WCI   0

$$

INZ006>009-017-018-025>027-160200-
NORTHEAST INDIANA

CITY           SKY/WX    TMP DP  RH WIND       PRES   REMARKS
AUBURN +       CLOUDY    23  18  80 SW10G20   30.26R WCI  12
FORT WAYNE     FLURRIES  16  12  84 W20       30.29R WCI  -1
HUNTINGTON +   FLURRIES  13   8  79 W14G20    30.31R WCI  -2
KENDALLVILLE + CLOUDY    19  16  90 SW16      30.25R WCI   4

$$

INZ028-029-035-036-043>045-051>053-160200-
WEST CENTRAL INDIANA

CITY           SKY/WX    TMP DP  RH WIND       PRES   REMARKS
CRAWFORDSVL +  LGT SNOW   9   5  84 MISG        N/A
GREENCASTLE +  CLOUDY    12   5  73 W7        30.39R WCI   2
LAFAYETTE      CLOUDY     9   5  84 W12       30.38R WCI  -6
TERRE HAUTE    LGT SNOW  12   7  80 NW12      30.43R WCI  -2

$$

INZ030>032-037>040-046>048-054>057-064-065-160200-
CENTRAL INDIANA

CITY           SKY/WX    TMP DP  RH WIND       PRES   REMARKS
COLUMBUS       CLOUDY    18  10  73 W18G25    30.38R WCI   2
FRANKFORT +    LGT SNOW  12   8  81 W17       30.37R WCI  -5
INDIANAPOLIS   CLOUDY    11   4  73 W14       30.38R WCI  -5
-EAGLE CREEK   MOCLDY    11   4  73 W8        30.36R WCI  -1
MARION +       MOCLDY    11   6  81 W15       30.33R WCI  -5
MT COMFORT *+  CLOUDY    14  12  92 W15       30.34R WCI  -1
SHELBYVILLE    CLOUDY    17   8  67 W18       30.35R WCI   1
ZIONSVILLE +   FLURRIES   9   4  80 W9        30.35R WCI  -4

$$

INZ033-034-041-042-049-050-058-059-160200-
EAST CENTRAL INDIANA

CITY           SKY/WX    TMP DP  RH WIND       PRES   REMARKS
MUNCIE         FLURRIES  16   9  74 W15G25    30.31R WCI   1
RICHMOND +     LGT SNOW  23  23 100 SW5       30.27S WCI  17

$$

INZ060-061-067>069-081>083-085>088-160200-
SOUTHWEST INDIANA

CITY           SKY/WX    TMP DP  RH WIND       PRES   REMARKS
EVANSVILLE     CLOUDY    18  10  71 NW6       30.46R WCI  10
HUNTINGBURG +  CLOUDY    17   9  70 NW16      30.44R WCI   2
WASHINGTON +   FAIR      15   6  67 NW12      30.45R WCI   2

$$

INZ062-063-066-070>080-084-089>092-160200-
SOUTH CENTRAL AND SOUTHEAST INDIANA

CITY           SKY/WX    TMP DP  RH WIND       PRES   REMARKS
BATESVILLE *+    N/A    N/A N/A N/A MISG        N/A
BEDFORD +      CLOUDY    16  10  79 NW7G17    30.39  WCI   6
BLOOMINGTON    MOCLDY    14   6  70 NW8       30.39R WCI   3
MADISON *+     CLOUDY    28  27  93 CALM      30.35R
NORTH VERNON + CLOUDY    25  23  93 W14       30.33R WCI  13
SEYMOUR +      CLOUDY    23  18  80 NW12G22   30.37R WCI  12

$$




USA.gov is the U.S. government's official web portal to all federal, state and local government web resources and services.